UAL523 LPMA-KEWR

Flight info

Callsign UAL523
Flight time N/A
Altitude 34000
Route GALOZ DCT 3430N020W DCT ETROX/M077F280 H104 VSM H101 VFL H132 FRS H142 KOKER/M077F360 DCT 4030N040W 41N050W 41N060W/M077F380 DCT DOVEY/N0454F380 DCT ACK DCT IGN FLOSI4
Aircraft B38M/M-SDE1FGHILORVWXY/HB1

Departure

Time N/A
Airport Cristiano Ronaldo International Airport (LPMA)

Arrival

Time 2026-05-04 01:01
Airport Newark Liberty International Airport (KEWR)
Time Latitude Longitude Altitude Speed Heading
2026-05-03 20:15 40.05386 -34.99804 34271 ft 430 kts 278°
2026-05-03 20:15 40.06241 -35.07502 34274 ft 427 kts 278°
2026-05-03 20:16 40.07090 -35.15191 34278 ft 429 kts 278°
2026-05-03 20:16 40.07937 -35.22920 34273 ft 433 kts 278°
2026-05-03 20:17 40.08781 -35.30659 34273 ft 430 kts 278°
2026-05-03 20:17 40.09616 -35.38369 34270 ft 431 kts 278°
2026-05-03 20:18 40.10451 -35.46129 34267 ft 431 kts 277°
2026-05-03 20:18 40.11282 -35.53896 34271 ft 433 kts 277°
2026-05-03 20:19 40.12100 -35.61604 34274 ft 431 kts 278°
2026-05-03 20:19 40.12922 -35.69392 34279 ft 434 kts 277°
2026-05-03 20:20 40.13743 -35.77217 34276 ft 434 kts 277°
2026-05-03 20:20 40.14554 -35.85008 34271 ft 432 kts 277°
2026-05-03 20:21 40.15361 -35.92807 34271 ft 434 kts 277°
2026-05-03 20:21 40.16169 -36.00666 34279 ft 435 kts 277°
2026-05-03 20:22 40.16968 -36.08506 34270 ft 434 kts 276°
2026-05-03 20:22 40.17763 -36.16347 34264 ft 436 kts 277°
2026-05-03 20:23 40.18554 -36.24202 34267 ft 435 kts 277°
2026-05-03 20:23 40.19337 -36.32033 34279 ft 433 kts 277°
2026-05-03 20:24 40.20110 -36.39824 34269 ft 436 kts 277°
2026-05-03 20:24 40.20886 -36.47703 34266 ft 436 kts 277°
2026-05-03 20:25 40.21657 -36.55575 34272 ft 435 kts 276°
2026-05-03 20:25 40.22420 -36.63435 34274 ft 436 kts 277°
2026-05-03 20:26 40.23182 -36.71329 34278 ft 436 kts 277°
2026-05-03 20:26 40.23935 -36.79188 34270 ft 434 kts 276°
2026-05-03 20:27 40.24681 -36.87040 34275 ft 435 kts 277°
2026-05-03 20:27 40.25424 -36.94913 34266 ft 435 kts 276°
2026-05-03 20:28 40.26160 -37.02764 34273 ft 433 kts 277°
2026-05-03 20:28 40.26889 -37.10613 34264 ft 435 kts 276°
2026-05-03 20:29 40.27617 -37.18493 34269 ft 435 kts 276°
2026-05-03 20:29 40.28214 -37.25012 34271 ft 432 kts 277°
2026-05-03 20:30 40.28925 -37.32825 34268 ft 432 kts 277°
2026-05-03 20:30 40.29748 -37.41942 34275 ft 433 kts 277°
2026-05-03 20:31 40.30335 -37.48494 34274 ft 431 kts 277°
2026-05-03 20:31 40.31029 -37.56302 34268 ft 432 kts 277°
2026-05-03 20:32 40.31721 -37.64141 34270 ft 433 kts 277°
2026-05-03 20:32 40.32405 -37.71956 34258 ft 431 kts 278°
2026-05-03 20:33 40.33084 -37.79778 34257 ft 432 kts 277°
2026-05-03 20:33 40.33754 -37.87556 34253 ft 432 kts 277°
2026-05-03 20:34 40.34423 -37.95380 34259 ft 432 kts 278°
2026-05-03 20:34 40.35092 -38.03261 34260 ft 432 kts 277°
2026-05-03 20:35 40.35751 -38.11101 34264 ft 432 kts 278°
2026-05-03 20:35 40.36402 -38.18919 34252 ft 430 kts 279°
2026-05-03 20:36 40.37042 -38.26651 34248 ft 429 kts 279°
2026-05-03 20:36 40.37680 -38.34419 34250 ft 428 kts 279°
2026-05-03 20:37 40.38312 -38.42190 34247 ft 428 kts 279°
2026-05-03 20:37 40.38938 -38.49962 34245 ft 428 kts 280°
2026-05-03 20:38 40.39558 -38.57707 34254 ft 426 kts 280°
2026-05-03 20:38 40.40168 -38.65412 34254 ft 423 kts 282°
2026-05-03 20:39 40.40769 -38.73052 34248 ft 420 kts 282°
2026-05-03 20:39 40.41363 -38.80661 34246 ft 419 kts 282°
2026-05-03 20:40 40.41950 -38.88265 34249 ft 419 kts 282°
2026-05-03 20:40 40.42533 -38.95869 34250 ft 418 kts 282°
2026-05-03 20:41 40.43107 -39.03438 34250 ft 416 kts 282°
2026-05-03 20:41 40.43677 -39.10996 34250 ft 416 kts 282°
2026-05-03 20:42 40.44237 -39.18506 34247 ft 416 kts 282°
2026-05-03 20:42 40.44797 -39.26072 34243 ft 416 kts 282°
2026-05-03 20:43 40.45351 -39.33638 34248 ft 416 kts 282°
2026-05-03 20:43 40.45900 -39.41196 34254 ft 414 kts 282°
2026-05-03 20:44 40.46441 -39.48711 34246 ft 413 kts 282°
2026-05-03 20:44 40.46977 -39.56218 34247 ft 413 kts 282°
2026-05-03 20:45 40.47505 -39.63702 34249 ft 411 kts 283°
2026-05-03 20:45 40.48028 -39.71169 34243 ft 410 kts 283°
2026-05-03 20:46 40.48546 -39.78634 34244 ft 410 kts 283°
2026-05-03 20:46 40.49058 -39.86091 34239 ft 409 kts 283°
2026-05-03 20:47 40.49565 -39.93541 34243 ft 409 kts 283°
2026-05-03 20:47 40.50089 -40.00987 34239 ft 408 kts 284°
2026-05-03 20:48 40.50786 -40.08374 34242 ft 407 kts 284°
2026-05-03 20:48 40.51462 -40.15713 34235 ft 407 kts 284°
2026-05-03 20:49 40.52145 -40.23098 34225 ft 407 kts 284°
2026-05-03 20:49 40.52821 -40.30497 34238 ft 407 kts 284°
2026-05-03 20:50 40.53493 -40.37893 34229 ft 407 kts 284°
2026-05-03 20:50 40.54160 -40.45293 34230 ft 408 kts 284°
2026-05-03 20:51 40.54822 -40.52689 34236 ft 408 kts 284°
2026-05-03 20:51 40.55480 -40.60099 34236 ft 408 kts 284°
2026-05-03 20:52 40.56134 -40.67517 34229 ft 408 kts 283°
2026-05-03 20:52 40.56783 -40.74928 34228 ft 408 kts 283°
2026-05-03 20:53 40.57427 -40.82343 34229 ft 408 kts 283°
2026-05-03 20:53 40.58066 -40.89758 34217 ft 408 kts 283°
2026-05-03 20:54 40.58701 -40.97177 34221 ft 408 kts 283°
2026-05-03 20:54 40.59644 -41.08306 34210 ft 407 kts 283°
2026-05-03 20:55 40.60261 -41.15673 34225 ft 404 kts 283°
2026-05-03 20:55 40.60873 -41.23005 34217 ft 403 kts 283°
2026-05-03 20:56 40.61478 -41.30337 34216 ft 403 kts 283°
2026-05-03 20:56 40.62080 -41.37670 34216 ft 403 kts 283°
2026-05-03 20:57 40.62672 -41.44956 34219 ft 403 kts 283°
2026-05-03 20:57 40.63264 -41.52291 34219 ft 403 kts 283°
2026-05-03 20:58 40.63852 -41.59634 34204 ft 403 kts 284°
2026-05-03 20:58 40.64431 -41.66945 34223 ft 401 kts 283°
2026-05-03 20:59 40.65007 -41.74239 34222 ft 400 kts 283°
2026-05-03 20:59 40.65576 -41.81535 34219 ft 401 kts 283°
2026-05-03 21:00 40.65954 -41.86410 34252 ft 399 kts 283°
2026-05-03 21:00 40.66698 -41.96072 34214 ft 398 kts 284°
2026-05-03 21:01 40.67250 -42.03317 34212 ft 398 kts 284°
2026-05-03 21:01 40.67797 -42.10566 34193 ft 397 kts 284°
2026-05-03 21:02 40.68338 -42.17793 34208 ft 396 kts 284°
2026-05-03 21:02 40.68875 -42.25008 34205 ft 395 kts 284°
2026-05-03 21:03 40.69405 -42.32215 34204 ft 395 kts 285°
2026-05-03 21:03 40.69930 -42.39405 34204 ft 394 kts 284°
2026-05-03 21:04 40.70450 -42.46584 34199 ft 393 kts 284°
2026-05-03 21:04 40.70965 -42.53758 34200 ft 393 kts 284°
2026-05-03 21:05 40.71476 -42.60942 34183 ft 394 kts 284°
2026-05-03 21:05 40.71982 -42.68122 34205 ft 393 kts 285°
2026-05-03 21:06 40.72483 -42.75302 34202 ft 393 kts 285°
2026-05-03 21:06 40.72980 -42.82479 34198 ft 393 kts 285°
2026-05-03 21:07 40.73473 -42.89661 34198 ft 393 kts 285°
2026-05-03 21:07 40.73961 -42.96837 34198 ft 393 kts 285°
2026-05-03 21:08 40.74444 -43.04023 34195 ft 393 kts 285°
2026-05-03 21:08 40.74924 -43.11208 34196 ft 393 kts 285°
2026-05-03 21:09 40.75400 -43.18411 34209 ft 394 kts 285°
2026-05-03 21:09 40.75867 -43.25558 34192 ft 394 kts 285°
2026-05-03 21:10 40.76334 -43.32753 34192 ft 394 kts 285°
2026-05-03 21:10 40.76796 -43.39956 34206 ft 394 kts 285°
2026-05-03 21:11 40.77254 -43.47156 34189 ft 394 kts 284°
2026-05-03 21:11 40.77707 -43.54362 34207 ft 394 kts 284°
2026-05-03 21:12 40.78155 -43.61568 34180 ft 393 kts 284°
2026-05-03 21:12 40.78601 -43.68764 34186 ft 394 kts 283°
2026-05-03 21:13 40.79040 -43.75975 34183 ft 394 kts 283°
2026-05-03 21:13 40.79476 -43.83180 34184 ft 394 kts 283°
2026-05-03 21:14 40.79906 -43.90387 34184 ft 394 kts 283°
2026-05-03 21:14 40.80333 -43.97598 34179 ft 394 kts 283°
2026-05-03 21:15 40.80755 -44.04805 34185 ft 394 kts 282°
2026-05-03 21:15 40.81171 -44.12013 34182 ft 394 kts 282°
2026-05-03 21:16 40.81585 -44.19225 34182 ft 394 kts 282°
2026-05-03 21:16 40.81993 -44.26437 34180 ft 394 kts 282°
2026-05-03 21:17 40.82329 -44.32432 34180 ft 394 kts 282°
2026-05-03 21:17 40.82729 -44.39647 34181 ft 394 kts 282°
2026-05-03 21:18 40.83125 -44.46868 34168 ft 394 kts 281°
2026-05-03 21:18 40.83517 -44.54074 34168 ft 393 kts 281°
2026-05-03 21:19 40.83903 -44.61285 34168 ft 394 kts 281°
2026-05-03 21:19 40.84285 -44.68494 34148 ft 394 kts 280°
2026-05-03 21:20 40.84663 -44.75726 34161 ft 395 kts 280°
2026-05-03 21:20 40.85037 -44.82960 34161 ft 395 kts 280°
2026-05-03 21:21 40.85404 -44.90180 34162 ft 393 kts 279°
2026-05-03 21:21 40.85768 -44.97363 34154 ft 392 kts 279°
2026-05-03 21:22 40.86125 -45.04540 34157 ft 392 kts 279°
2026-05-03 21:22 40.86479 -45.11722 34156 ft 392 kts 279°
2026-05-03 21:23 40.86824 -45.18853 34154 ft 392 kts 278°
2026-05-03 21:23 40.87171 -45.26051 34162 ft 394 kts 278°
2026-05-03 21:24 40.87512 -45.33286 34161 ft 395 kts 277°
2026-05-03 21:24 40.87852 -45.40526 34163 ft 395 kts 277°
2026-05-03 21:25 40.88184 -45.47772 34161 ft 395 kts 277°
2026-05-03 21:25 40.88514 -45.55016 34154 ft 395 kts 277°
2026-05-03 21:26 40.88840 -45.62263 34150 ft 395 kts 277°
2026-05-03 21:26 40.89157 -45.69503 34154 ft 395 kts 277°
2026-05-03 21:27 40.89472 -45.76769 34142 ft 398 kts 277°
2026-05-03 21:27 40.89788 -45.84067 34138 ft 398 kts 276°
2026-05-03 21:28 40.90092 -45.91366 34138 ft 397 kts 276°
2026-05-03 21:28 40.90399 -45.98661 34139 ft 397 kts 276°
2026-05-03 21:29 40.90698 -46.05969 34143 ft 398 kts 276°
2026-05-03 21:29 40.90993 -46.13230 34135 ft 398 kts 276°
2026-05-03 21:30 40.91281 -46.20528 34133 ft 398 kts 276°
2026-05-03 21:30 40.91569 -46.27836 34132 ft 398 kts 275°
2026-05-03 21:31 40.91849 -46.35151 34128 ft 398 kts 275°
2026-05-03 21:31 40.92126 -46.42469 34129 ft 399 kts 275°
2026-05-03 21:32 40.92398 -46.49786 34126 ft 399 kts 275°
2026-05-03 21:32 40.92666 -46.57109 34127 ft 399 kts 275°
2026-05-03 21:33 40.92929 -46.64435 34128 ft 399 kts 275°
2026-05-03 21:33 40.93188 -46.71762 34127 ft 399 kts 275°
2026-05-03 21:34 40.93442 -46.79092 34119 ft 399 kts 274°
2026-05-03 21:34 40.93691 -46.86426 34121 ft 399 kts 274°
2026-05-03 21:35 40.93936 -46.93761 34122 ft 399 kts 274°
2026-05-03 21:35 40.94176 -47.01097 34114 ft 399 kts 274°
2026-05-03 21:36 40.94412 -47.08438 34117 ft 400 kts 274°
2026-05-03 21:36 40.94643 -47.15780 34115 ft 400 kts 274°
2026-05-03 21:37 40.94870 -47.23125 34115 ft 399 kts 274°
2026-05-03 21:37 40.95092 -47.30472 34108 ft 400 kts 274°
2026-05-03 21:38 40.95309 -47.37835 34105 ft 401 kts 273°
2026-05-03 21:38 40.95521 -47.45161 34106 ft 401 kts 273°
2026-05-03 21:39 40.95729 -47.52539 34101 ft 402 kts 273°
2026-05-03 21:39 40.95934 -47.59921 34099 ft 402 kts 273°
2026-05-03 21:40 40.96133 -47.67309 34096 ft 402 kts 273°
2026-05-03 21:40 40.96328 -47.74689 34096 ft 402 kts 273°
2026-05-03 21:41 40.96517 -47.82082 34089 ft 402 kts 272°
2026-05-03 21:41 40.96704 -47.89475 34098 ft 402 kts 272°
2026-05-03 21:42 40.96884 -47.96856 34100 ft 402 kts 272°
2026-05-03 21:42 40.97060 -48.04244 34089 ft 402 kts 272°
2026-05-03 21:43 40.97231 -48.11635 34088 ft 402 kts 272°
2026-05-03 21:43 40.97398 -48.19028 34087 ft 402 kts 272°
2026-05-03 21:44 40.97559 -48.26424 34091 ft 402 kts 272°
2026-05-03 21:44 40.97717 -48.33821 34070 ft 402 kts 272°
2026-05-03 21:45 40.97869 -48.41231 34072 ft 403 kts 272°
2026-05-03 21:45 40.98017 -48.48648 34069 ft 403 kts 272°
2026-05-03 21:46 40.98161 -48.56065 34070 ft 403 kts 272°
2026-05-03 21:46 40.98299 -48.63480 34070 ft 403 kts 272°
2026-05-03 21:47 40.98433 -48.70900 34066 ft 403 kts 271°
2026-05-03 21:47 40.98562 -48.78322 34067 ft 403 kts 271°
2026-05-03 21:48 40.98687 -48.85750 34064 ft 404 kts 271°
2026-05-03 21:48 40.98806 -48.93172 34061 ft 404 kts 271°
2026-05-03 21:49 40.98921 -49.00601 34062 ft 404 kts 271°
2026-05-03 21:49 40.99032 -49.08035 34063 ft 404 kts 271°
2026-05-03 21:50 40.99137 -49.15467 34072 ft 404 kts 271°
2026-05-03 21:50 40.99238 -49.22903 34072 ft 404 kts 271°
2026-05-03 21:51 40.99334 -49.30339 34070 ft 404 kts 271°
2026-05-03 21:51 40.99425 -49.37779 34066 ft 404 kts 271°
2026-05-03 21:52 40.99511 -49.45224 34063 ft 404 kts 271°
2026-05-03 21:52 40.99593 -49.52620 34064 ft 405 kts 271°
2026-05-03 21:53 40.99670 -49.60072 34064 ft 405 kts 271°
2026-05-03 21:53 40.99742 -49.67527 34065 ft 405 kts 271°
2026-05-03 21:54 40.99809 -49.74987 34060 ft 405 kts 271°
2026-05-03 21:54 40.99872 -49.82447 34061 ft 405 kts 271°
2026-05-03 21:55 40.99930 -49.89910 34056 ft 406 kts 271°
2026-05-03 21:55 40.99983 -49.97353 34047 ft 403 kts 271°
2026-05-03 21:56 41.00201 -50.04742 34039 ft 402 kts 274°
2026-05-03 21:56 41.00522 -50.12126 34037 ft 401 kts 273°
2026-05-03 21:57 41.00827 -50.19505 34035 ft 402 kts 273°
2026-05-03 21:57 41.01134 -50.26885 34035 ft 402 kts 273°
2026-05-03 21:58 41.01434 -50.34271 34035 ft 402 kts 273°
2026-05-03 21:58 41.01729 -50.41653 34038 ft 401 kts 273°
2026-05-03 21:59 41.02019 -50.49018 34029 ft 400 kts 273°
2026-05-03 21:59 41.02303 -50.56335 34029 ft 401 kts 273°
2026-05-03 22:00 41.02583 -50.63700 34026 ft 400 kts 273°
2026-05-03 22:00 41.02859 -50.71065 34021 ft 400 kts 273°
2026-05-03 22:01 41.03131 -50.78431 34028 ft 401 kts 272°
2026-05-03 22:01 41.03398 -50.85830 34025 ft 403 kts 272°
2026-05-03 22:02 41.03531 -50.89547 34205 ft 405 kts 272°
2026-05-03 22:02 41.03663 -50.93275 34414 ft 406 kts 272°
2026-05-03 22:02 41.03794 -50.97015 34640 ft 406 kts 272°
2026-05-03 22:02 41.03924 -51.00753 34874 ft 407 kts 272°
2026-05-03 22:03 41.04052 -51.04494 35108 ft 407 kts 273°
2026-05-03 22:03 41.04180 -51.08237 35340 ft 407 kts 273°
2026-05-03 22:03 41.04306 -51.11974 35591 ft 406 kts 273°
2026-05-03 22:03 41.04431 -51.15710 35826 ft 406 kts 273°
2026-05-03 22:04 41.04555 -51.19437 36011 ft 404 kts 272°
2026-05-03 22:04 41.04675 -51.23122 35998 ft 397 kts 272°
2026-05-03 22:04 41.04870 -51.29141 36002 ft 391 kts 272°
2026-05-03 22:05 41.05098 -51.36308 35996 ft 388 kts 272°
2026-05-03 22:05 41.05320 -51.43436 35996 ft 387 kts 272°
2026-05-03 22:06 41.05537 -51.50554 36000 ft 387 kts 272°
2026-05-03 22:06 41.05750 -51.57668 35995 ft 387 kts 272°
2026-05-03 22:07 41.05959 -51.64794 36003 ft 388 kts 272°
2026-05-03 22:07 41.06165 -51.71950 35996 ft 389 kts 272°
2026-05-03 22:08 41.06366 -51.79112 35991 ft 389 kts 272°
2026-05-03 22:08 41.06563 -51.86277 35992 ft 389 kts 272°
2026-05-03 22:09 41.06755 -51.93440 35994 ft 389 kts 272°
2026-05-03 22:10 41.07035 -52.04183 35987 ft 388 kts 271°
2026-05-03 22:10 41.07215 -52.11325 35989 ft 388 kts 271°
2026-05-03 22:11 41.07390 -52.18418 35979 ft 388 kts 271°
2026-05-03 22:11 41.07562 -52.25563 35975 ft 388 kts 271°
2026-05-03 22:12 41.07730 -52.32715 35967 ft 388 kts 271°
2026-05-03 22:12 41.07893 -52.39860 35985 ft 388 kts 271°
2026-05-03 22:13 41.08051 -52.46980 35970 ft 385 kts 270°
2026-05-03 22:13 41.08204 -52.54067 35958 ft 384 kts 270°
2026-05-03 22:14 41.08352 -52.61144 35960 ft 384 kts 270°
2026-05-03 22:14 41.08495 -52.68223 35950 ft 384 kts 270°
2026-05-03 22:15 41.08637 -52.75303 35948 ft 384 kts 270°
2026-05-03 22:15 41.08771 -52.82385 35942 ft 384 kts 270°
2026-05-03 22:16 41.08902 -52.89427 35939 ft 382 kts 270°
2026-05-03 22:16 41.09028 -52.96457 35940 ft 381 kts 270°
2026-05-03 22:17 41.09149 -53.03486 35938 ft 381 kts 270°
2026-05-03 22:17 41.09267 -53.10514 35939 ft 381 kts 270°
2026-05-03 22:18 41.09380 -53.17540 35927 ft 381 kts 270°
2026-05-03 22:18 41.09488 -53.24569 35923 ft 380 kts 270°
2026-05-03 22:19 41.09593 -53.31578 35920 ft 380 kts 270°
2026-05-03 22:19 41.09693 -53.38588 35914 ft 380 kts 269°
2026-05-03 22:20 41.09788 -53.45605 35909 ft 381 kts 269°
2026-05-03 22:20 41.09876 -53.52628 35914 ft 380 kts 269°
2026-05-03 22:21 41.09978 -53.59666 35906 ft 381 kts 269°
2026-05-03 22:21 41.10048 -53.66700 35903 ft 386 kts 269°
2026-05-03 22:22 41.10130 -53.73775 35895 ft 382 kts 269°
2026-05-03 22:22 41.10205 -53.80793 35882 ft 380 kts 268°
2026-05-03 22:23 41.10274 -53.87785 35876 ft 379 kts 269°
2026-05-03 22:23 41.10341 -53.94771 35863 ft 379 kts 268°
2026-05-03 22:24 41.10402 -54.01748 35860 ft 380 kts 268°
2026-05-03 22:24 41.10461 -54.08744 35857 ft 379 kts 268°
2026-05-03 22:25 41.10508 -54.15724 35841 ft 378 kts 268°
2026-05-03 22:25 41.10563 -54.22711 35845 ft 379 kts 268°
2026-05-03 22:26 41.10605 -54.29701 35842 ft 379 kts 268°
2026-05-03 22:26 41.10646 -54.36695 35842 ft 379 kts 268°
2026-05-03 22:27 41.10682 -54.43676 35849 ft 379 kts 268°
2026-05-03 22:27 41.10713 -54.50665 35842 ft 379 kts 267°
2026-05-03 22:28 41.10743 -54.57647 35830 ft 378 kts 268°
2026-05-03 22:28 41.10765 -54.64621 35824 ft 378 kts 268°
2026-05-03 22:29 41.10787 -54.71536 35823 ft 379 kts 268°
2026-05-03 22:29 41.10799 -54.78550 35806 ft 377 kts 267°
2026-05-03 22:30 41.10803 -54.85503 35813 ft 381 kts 267°
2026-05-03 22:30 41.10820 -54.92483 35800 ft 377 kts 266°
2026-05-03 22:31 41.10819 -54.99452 35797 ft 377 kts 267°
2026-05-03 22:31 41.10820 -55.06412 35798 ft 378 kts 266°
2026-05-03 22:32 41.10811 -55.13348 35783 ft 375 kts 266°
2026-05-03 22:32 41.10803 -55.20278 35788 ft 378 kts 267°
2026-05-03 22:33 41.10786 -55.27258 35772 ft 382 kts 266°
2026-05-03 22:33 41.10765 -55.34242 35762 ft 378 kts 266°
2026-05-03 22:34 41.10743 -55.41204 35755 ft 378 kts 266°
2026-05-03 22:34 41.10719 -55.48153 35746 ft 377 kts 266°
2026-05-03 22:35 41.10688 -55.55114 35745 ft 379 kts 265°
2026-05-03 22:35 41.10652 -55.62077 35736 ft 377 kts 265°
2026-05-03 22:36 41.10613 -55.69025 35737 ft 377 kts 265°
2026-05-03 22:36 41.10569 -55.75928 35728 ft 377 kts 265°
2026-05-03 22:37 41.10521 -55.82926 35726 ft 377 kts 265°
2026-05-03 22:37 41.10467 -55.89876 35716 ft 377 kts 265°
2026-05-03 22:38 41.10414 -55.96831 35709 ft 378 kts 264°
2026-05-03 22:38 41.10354 -56.03788 35714 ft 377 kts 264°
2026-05-03 22:39 41.10289 -56.10691 35702 ft 376 kts 264°
2026-05-03 22:39 41.10221 -56.17628 35695 ft 376 kts 264°
2026-05-03 22:40 41.10148 -56.24565 35685 ft 376 kts 264°
2026-05-03 22:40 41.10071 -56.31513 35684 ft 378 kts 263°
2026-05-03 22:41 41.09990 -56.38477 35659 ft 378 kts 263°
2026-05-03 22:41 41.09904 -56.45441 35659 ft 378 kts 263°
2026-05-03 22:42 41.09814 -56.52397 35665 ft 377 kts 262°
2026-05-03 22:42 41.09722 -56.59341 35656 ft 377 kts 262°
2026-05-03 22:43 41.09622 -56.66279 35653 ft 377 kts 262°
2026-05-03 22:43 41.09524 -56.73223 35650 ft 377 kts 262°
2026-05-03 22:44 41.09415 -56.80158 35652 ft 376 kts 262°
2026-05-03 22:44 41.09307 -56.87092 35686 ft 375 kts 262°
2026-05-03 22:45 41.09191 -56.93977 35644 ft 373 kts 261°
2026-05-03 22:45 41.09074 -57.00790 35642 ft 372 kts 261°
2026-05-03 22:46 41.08955 -57.07641 35636 ft 371 kts 261°
2026-05-03 22:46 41.08828 -57.14536 35638 ft 371 kts 261°
2026-05-03 22:47 41.08700 -57.21332 35635 ft 372 kts 261°
2026-05-03 22:47 41.08568 -57.28178 35683 ft 372 kts 259°
2026-05-03 22:48 41.08431 -57.35016 35635 ft 371 kts 259°
2026-05-03 22:48 41.08289 -57.41849 35636 ft 371 kts 259°
2026-05-03 22:49 41.08146 -57.48671 35633 ft 370 kts 259°
2026-05-03 22:49 41.07996 -57.55480 35634 ft 369 kts 259°
2026-05-03 22:50 41.07844 -57.62288 35636 ft 370 kts 259°
2026-05-03 22:50 41.07688 -57.69094 35684 ft 370 kts 259°
2026-05-03 22:51 41.07528 -57.75894 35636 ft 369 kts 259°
2026-05-03 22:51 41.07363 -57.82689 35631 ft 369 kts 259°
2026-05-03 22:52 41.07196 -57.89432 35631 ft 369 kts 259°
2026-05-03 22:52 41.07024 -57.96227 35636 ft 369 kts 259°
2026-05-03 22:53 41.06848 -58.03020 35627 ft 368 kts 259°
2026-05-03 22:53 41.06670 -58.09770 35634 ft 366 kts 259°
2026-05-03 22:54 41.06516 -58.15407 35632 ft 365 kts 259°
2026-05-03 22:54 41.06301 -58.23224 35629 ft 365 kts 258°
2026-05-03 22:55 41.06143 -58.28815 35627 ft 365 kts 258°
2026-05-03 22:55 41.05949 -58.35541 35635 ft 365 kts 258°
2026-05-03 22:56 41.05752 -58.42268 35628 ft 365 kts 258°
2026-05-03 22:56 41.05551 -58.48988 35686 ft 365 kts 258°
2026-05-03 22:57 41.05350 -58.55676 35643 ft 360 kts 258°
2026-05-03 22:57 41.05143 -58.62274 35643 ft 357 kts 258°
2026-05-03 22:58 41.04935 -58.68828 35631 ft 356 kts 257°
2026-05-03 22:58 41.04724 -58.75379 35636 ft 356 kts 257°
2026-05-03 22:59 41.04509 -58.81921 35633 ft 355 kts 257°
2026-05-03 22:59 41.04291 -58.88465 35633 ft 356 kts 257°
2026-05-03 23:00 41.04070 -58.95004 35640 ft 355 kts 257°
2026-05-03 23:00 41.03844 -59.01547 35640 ft 355 kts 257°
2026-05-03 23:01 41.03615 -59.08077 35642 ft 355 kts 257°
2026-05-03 23:01 41.03384 -59.14566 35634 ft 355 kts 257°
2026-05-03 23:02 41.03148 -59.21099 35637 ft 355 kts 257°
2026-05-03 23:02 41.02908 -59.27623 35637 ft 355 kts 257°
2026-05-03 23:03 41.02664 -59.34153 35640 ft 355 kts 257°
2026-05-03 23:03 41.02416 -59.40693 35642 ft 356 kts 257°
2026-05-03 23:04 41.02165 -59.47234 35639 ft 356 kts 257°
2026-05-03 23:04 41.01910 -59.53775 35640 ft 356 kts 257°
2026-05-03 23:05 41.01651 -59.60320 35637 ft 356 kts 257°
2026-05-03 23:05 41.01388 -59.66861 35636 ft 356 kts 257°
2026-05-03 23:06 41.01120 -59.73409 35633 ft 359 kts 256°
2026-05-03 23:06 41.00850 -59.79992 35633 ft 358 kts 257°
2026-05-03 23:07 41.00574 -59.86566 35644 ft 358 kts 257°
2026-05-03 23:07 41.00295 -59.93139 35637 ft 358 kts 257°
2026-05-03 23:08 41.00033 -59.99718 35636 ft 361 kts 259°
2026-05-03 23:08 41.00310 -60.06430 35632 ft 366 kts 262°
2026-05-03 23:09 41.00607 -60.13165 35631 ft 369 kts 262°
2026-05-03 23:09 41.00923 -60.19953 35636 ft 370 kts 263°
2026-05-03 23:10 41.01226 -60.26743 35636 ft 369 kts 262°
2026-05-03 23:10 41.01528 -60.33533 35637 ft 370 kts 262°
2026-05-03 23:11 41.01824 -60.40279 35630 ft 369 kts 262°
2026-05-03 23:11 41.02117 -60.47072 35671 ft 370 kts 263°
2026-05-03 23:12 41.02408 -60.53865 35625 ft 369 kts 263°
2026-05-03 23:12 41.02691 -60.60637 35624 ft 368 kts 263°
2026-05-03 23:13 41.02972 -60.67406 35629 ft 368 kts 262°
2026-05-03 23:13 41.03249 -60.74174 35624 ft 368 kts 262°
2026-05-03 23:14 41.03522 -60.80986 35627 ft 372 kts 263°
2026-05-03 23:14 41.03795 -60.87826 35620 ft 372 kts 263°
2026-05-03 23:15 41.04062 -60.94674 35624 ft 372 kts 263°
2026-05-03 23:15 41.04326 -61.01521 35619 ft 372 kts 263°
2026-05-03 23:16 41.04585 -61.08393 35624 ft 375 kts 263°
2026-05-03 23:16 41.04844 -61.15293 35610 ft 375 kts 263°
2026-05-03 23:17 41.05096 -61.22197 35616 ft 375 kts 263°
2026-05-03 23:17 41.05346 -61.29104 35619 ft 375 kts 263°
2026-05-03 23:18 41.05591 -61.36019 35613 ft 378 kts 263°
2026-05-03 23:18 41.05834 -61.42969 35627 ft 378 kts 263°
2026-05-03 23:19 41.06072 -61.49922 35621 ft 378 kts 263°
2026-05-03 23:19 41.06307 -61.56880 35623 ft 378 kts 263°
2026-05-03 23:20 41.06537 -61.63838 35620 ft 378 kts 263°
2026-05-03 23:20 41.06763 -61.70797 35613 ft 378 kts 263°
2026-05-03 23:21 41.06985 -61.77760 35629 ft 378 kts 263°
2026-05-03 23:21 41.07201 -61.84672 35630 ft 378 kts 263°
2026-05-03 23:22 41.07519 -61.95124 35622 ft 380 kts 263°
2026-05-03 23:22 41.07729 -62.02121 35624 ft 380 kts 263°
2026-05-03 23:23 41.07933 -62.09123 35626 ft 379 kts 263°
2026-05-03 23:23 41.08132 -62.16082 35623 ft 377 kts 263°
2026-05-03 23:24 41.08325 -62.23025 35680 ft 377 kts 264°
2026-05-03 23:24 41.08516 -62.30011 35621 ft 380 kts 264°
2026-05-03 23:25 41.08704 -62.37016 35625 ft 380 kts 264°
2026-05-03 23:25 41.08887 -62.44025 35636 ft 381 kts 264°
2026-05-03 23:26 41.09066 -62.51043 35636 ft 381 kts 264°
2026-05-03 23:26 41.09240 -62.58078 35633 ft 383 kts 264°
2026-05-03 23:27 41.09413 -62.65146 35634 ft 384 kts 264°
2026-05-03 23:27 41.09580 -62.72212 35637 ft 384 kts 264°
2026-05-03 23:28 41.09743 -62.79284 35645 ft 384 kts 264°
2026-05-03 23:28 41.09902 -62.86374 35641 ft 387 kts 265°
2026-05-03 23:29 41.10059 -62.93494 35643 ft 385 kts 264°
2026-05-03 23:29 41.10208 -63.00536 35639 ft 384 kts 264°
2026-05-03 23:30 41.10355 -63.07650 35646 ft 383 kts 264°
2026-05-03 23:30 41.10495 -63.14668 35659 ft 385 kts 265°
2026-05-03 23:31 41.10633 -63.21781 35656 ft 386 kts 265°
2026-05-03 23:31 41.10767 -63.28900 35656 ft 386 kts 265°
2026-05-03 23:32 41.10896 -63.36023 35657 ft 387 kts 265°
2026-05-03 23:32 41.11021 -63.43152 35669 ft 387 kts 265°
2026-05-03 23:33 41.11142 -63.50317 35670 ft 390 kts 265°
2026-05-03 23:33 41.11260 -63.57508 35671 ft 390 kts 265°
2026-05-03 23:34 41.11372 -63.64699 35674 ft 390 kts 265°
2026-05-03 23:34 41.11481 -63.71896 35674 ft 390 kts 265°
2026-05-03 23:35 41.11585 -63.79082 35678 ft 389 kts 265°
2026-05-03 23:35 41.11684 -63.86255 35678 ft 389 kts 265°
2026-05-03 23:36 41.11779 -63.93423 35684 ft 389 kts 265°
2026-05-03 23:36 41.11869 -64.00586 35686 ft 389 kts 265°
2026-05-03 23:37 41.11954 -64.07762 35693 ft 391 kts 265°
2026-05-03 23:37 41.12037 -64.14983 35701 ft 392 kts 265°
2026-05-03 23:38 41.12114 -64.22208 35703 ft 392 kts 265°
2026-05-03 23:38 41.12187 -64.29430 35704 ft 392 kts 265°
2026-05-03 23:39 41.12255 -64.36664 35738 ft 392 kts 265°
2026-05-03 23:39 41.12319 -64.43875 35705 ft 394 kts 265°
2026-05-03 23:40 41.12379 -64.51145 35714 ft 394 kts 265°
2026-05-03 23:40 41.12434 -64.58417 35692 ft 394 kts 265°
2026-05-03 23:41 41.12485 -64.65675 35714 ft 393 kts 265°
2026-05-03 23:41 41.12530 -64.72912 35711 ft 392 kts 265°
2026-05-03 23:42 41.12571 -64.80139 35723 ft 392 kts 265°
2026-05-03 23:42 41.12602 -64.86145 35723 ft 392 kts 265°
2026-05-03 23:43 41.12635 -64.93371 35724 ft 392 kts 265°
2026-05-03 23:43 41.12663 -65.00604 35729 ft 393 kts 265°
2026-05-03 23:44 41.12687 -65.07851 35737 ft 393 kts 265°
2026-05-03 23:44 41.12707 -65.15102 35741 ft 393 kts 265°
2026-05-03 23:45 41.12722 -65.22359 35740 ft 393 kts 265°
2026-05-03 23:45 41.12732 -65.29617 35743 ft 393 kts 265°
2026-05-03 23:46 41.12738 -65.36901 35751 ft 396 kts 265°
2026-05-03 23:46 41.12739 -65.44204 35750 ft 396 kts 265°
2026-05-03 23:47 41.12736 -65.51497 35753 ft 395 kts 265°
2026-05-03 23:47 41.12728 -65.58768 35753 ft 394 kts 265°
2026-05-03 23:48 41.12715 -65.66041 35756 ft 395 kts 265°
2026-05-03 23:48 41.12698 -65.73323 35756 ft 395 kts 265°
2026-05-03 23:49 41.12676 -65.80612 35772 ft 395 kts 265°
2026-05-03 23:49 41.12650 -65.87897 35778 ft 395 kts 265°
2026-05-03 23:50 41.12619 -65.95193 35781 ft 397 kts 266°
2026-05-03 23:50 41.12583 -66.02525 35773 ft 398 kts 266°
2026-05-03 23:51 41.12543 -66.09873 35785 ft 398 kts 266°
2026-05-03 23:51 41.12498 -66.17216 35785 ft 398 kts 266°
2026-05-03 23:52 41.12448 -66.24567 35780 ft 398 kts 266°
2026-05-03 23:52 41.12393 -66.31894 35794 ft 401 kts 266°
2026-05-03 23:53 41.12335 -66.39299 35789 ft 398 kts 266°
2026-05-03 23:53 41.12270 -66.46634 35789 ft 397 kts 266°
2026-05-03 23:54 41.12203 -66.53899 35800 ft 397 kts 265°
2026-05-03 23:54 41.12130 -66.61220 35808 ft 398 kts 266°
2026-05-03 23:55 41.12052 -66.68559 35813 ft 398 kts 266°
2026-05-03 23:55 41.11970 -66.75900 35813 ft 398 kts 266°
2026-05-03 23:56 41.11883 -66.83242 35819 ft 398 kts 266°
2026-05-03 23:56 41.11791 -66.90592 35839 ft 399 kts 266°
2026-05-03 23:57 41.11694 -66.97968 35821 ft 400 kts 266°
2026-05-03 23:57 41.12034 -67.05357 35835 ft 403 kts 271°
2026-05-03 23:58 41.12523 -67.12753 35831 ft 403 kts 271°
2026-05-03 23:58 41.13017 -67.20158 35833 ft 403 kts 271°
2026-05-03 23:59 41.13504 -67.27575 35831 ft 404 kts 271°
2026-05-03 23:59 41.13987 -67.35000 35834 ft 403 kts 271°
2026-05-04 00:00 41.14464 -67.42397 35839 ft 401 kts 271°
2026-05-04 00:00 41.14934 -67.49769 35838 ft 401 kts 271°
2026-05-04 00:01 41.15399 -67.57138 35848 ft 402 kts 271°
2026-05-04 00:01 41.15861 -67.64525 35850 ft 402 kts 271°
2026-05-04 00:02 41.16318 -67.71916 35855 ft 402 kts 271°
2026-05-04 00:02 41.16771 -67.79310 35856 ft 402 kts 271°
2026-05-04 00:03 41.17219 -67.86706 35856 ft 402 kts 271°
2026-05-04 00:03 41.17662 -67.94106 35865 ft 402 kts 271°
2026-05-04 00:04 41.18100 -68.01504 35865 ft 402 kts 271°
2026-05-04 00:04 41.18534 -68.08904 35866 ft 402 kts 271°
2026-05-04 00:05 41.18963 -68.16307 35866 ft 402 kts 271°
2026-05-04 00:05 41.19385 -68.23664 35868 ft 403 kts 271°
2026-05-04 00:06 41.19806 -68.31088 35871 ft 403 kts 271°
2026-05-04 00:06 41.20222 -68.38515 35872 ft 403 kts 271°
2026-05-04 00:07 41.20633 -68.45942 35874 ft 403 kts 271°
2026-05-04 00:07 41.21040 -68.53375 35892 ft 403 kts 271°
2026-05-04 00:08 41.21442 -68.60809 35878 ft 404 kts 271°
2026-05-04 00:08 41.21839 -68.68252 35879 ft 404 kts 271°
2026-05-04 00:09 41.22232 -68.75692 35856 ft 404 kts 271°
2026-05-04 00:09 41.22619 -68.83108 35871 ft 402 kts 271°
2026-05-04 00:10 41.22999 -68.90504 35882 ft 401 kts 271°
2026-05-04 00:10 41.23375 -68.97907 35881 ft 401 kts 271°
2026-05-04 00:11 41.23747 -69.05309 35888 ft 401 kts 271°
2026-05-04 00:11 41.24113 -69.12708 35883 ft 402 kts 271°
2026-05-04 00:12 41.24475 -69.20113 35890 ft 402 kts 272°
2026-05-04 00:12 41.24833 -69.27530 35876 ft 402 kts 271°
2026-05-04 00:13 41.25186 -69.34950 35877 ft 402 kts 271°
2026-05-04 00:13 41.25535 -69.42371 35881 ft 402 kts 271°
2026-05-04 00:14 41.25878 -69.49794 35878 ft 402 kts 271°
2026-05-04 00:14 41.26218 -69.57220 35864 ft 403 kts 272°
2026-05-04 00:15 41.26553 -69.64664 35873 ft 403 kts 272°
2026-05-04 00:15 41.26883 -69.72112 35873 ft 404 kts 271°
2026-05-04 00:16 41.27209 -69.79560 35878 ft 404 kts 271°
2026-05-04 00:16 41.27529 -69.87006 35894 ft 404 kts 272°
2026-05-04 00:17 41.27846 -69.94468 35885 ft 404 kts 272°
2026-05-04 00:17 41.28158 -70.01930 35887 ft 404 kts 272°
2026-05-04 00:18 41.28982 -70.09337 35885 ft 406 kts 277°
2026-05-04 00:18 41.29835 -70.16708 35888 ft 406 kts 277°
2026-05-04 00:19 41.30702 -70.24118 35879 ft 405 kts 277°
2026-05-04 00:19 41.31561 -70.31535 35875 ft 406 kts 277°
2026-05-04 00:20 41.32416 -70.38956 35884 ft 406 kts 277°
2026-05-04 00:20 41.33266 -70.46375 35888 ft 406 kts 277°
2026-05-04 00:21 41.34109 -70.53785 35878 ft 405 kts 277°
2026-05-04 00:21 41.34946 -70.61175 35888 ft 404 kts 277°
2026-05-04 00:22 41.35777 -70.68562 35889 ft 403 kts 277°
2026-05-04 00:22 41.36602 -70.75939 35889 ft 403 kts 277°
2026-05-04 00:23 41.37423 -70.83323 35884 ft 403 kts 277°
2026-05-04 00:23 41.38239 -70.90706 35893 ft 404 kts 277°
2026-05-04 00:24 41.39053 -70.98110 35892 ft 404 kts 277°
2026-05-04 00:24 41.39861 -71.05513 35886 ft 404 kts 277°
2026-05-04 00:25 41.40664 -71.12916 35886 ft 404 kts 277°
2026-05-04 00:25 41.41463 -71.20326 35884 ft 404 kts 277°
2026-05-04 00:26 41.42258 -71.27740 35888 ft 404 kts 277°
2026-05-04 00:26 41.43047 -71.35149 35898 ft 404 kts 277°
2026-05-04 00:27 41.43827 -71.42519 35900 ft 404 kts 277°
2026-05-04 00:27 41.44607 -71.49936 35901 ft 404 kts 276°
2026-05-04 00:28 41.45383 -71.57359 35903 ft 405 kts 277°
2026-05-04 00:28 41.46029 -71.63573 35906 ft 405 kts 276°
2026-05-04 00:29 41.46797 -71.71010 35910 ft 405 kts 276°
2026-05-04 00:29 41.47554 -71.78389 35912 ft 405 kts 276°
2026-05-04 00:30 41.48313 -71.85829 35907 ft 405 kts 276°
2026-05-04 00:30 41.49067 -71.93271 35899 ft 405 kts 276°
2026-05-04 00:31 41.49815 -72.00711 35896 ft 405 kts 276°
2026-05-04 00:31 41.50559 -72.08150 35899 ft 405 kts 276°
2026-05-04 00:32 41.51298 -72.15594 35905 ft 405 kts 276°
2026-05-04 00:32 41.52032 -72.23038 35902 ft 405 kts 276°
2026-05-04 00:33 41.53125 -72.34210 35903 ft 405 kts 276°
2026-05-04 00:34 41.53846 -72.41651 35904 ft 404 kts 276°
2026-05-04 00:34 41.54564 -72.49104 35900 ft 405 kts 276°
2026-05-04 00:35 41.55275 -72.56550 35908 ft 405 kts 276°
2026-05-04 00:35 41.55983 -72.64000 35914 ft 404 kts 276°
2026-05-04 00:36 41.56686 -72.71453 35912 ft 405 kts 276°
2026-05-04 00:36 41.57383 -72.78907 35909 ft 405 kts 276°
2026-05-04 00:37 41.58077 -72.86368 35911 ft 405 kts 276°
2026-05-04 00:37 41.58761 -72.93784 35910 ft 405 kts 276°
2026-05-04 00:38 41.59445 -73.01244 35914 ft 405 kts 276°
2026-05-04 00:38 41.60124 -73.08713 35914 ft 405 kts 276°
2026-05-04 00:38 41.60462 -73.12449 35792 ft 407 kts 276°
2026-05-04 00:39 41.60801 -73.16214 35245 ft 410 kts 276°
2026-05-04 00:39 41.61142 -73.20008 34645 ft 412 kts 276°
2026-05-04 00:39 41.61483 -73.23819 34025 ft 413 kts 277°
2026-05-04 00:39 41.61822 -73.27621 33366 ft 413 kts 277°
2026-05-04 00:40 41.62160 -73.31430 32741 ft 411 kts 277°
2026-05-04 00:40 41.62494 -73.35212 32126 ft 408 kts 277°
2026-05-04 00:40 41.62825 -73.38964 31512 ft 406 kts 277°
2026-05-04 00:40 41.63153 -73.42702 30898 ft 404 kts 277°
2026-05-04 00:41 41.63478 -73.46420 30297 ft 401 kts 277°
2026-05-04 00:41 41.63800 -73.50115 29663 ft 398 kts 277°
2026-05-04 00:41 41.64117 -73.53769 29053 ft 393 kts 277°
2026-05-04 00:41 41.64429 -73.57378 28472 ft 389 kts 277°
2026-05-04 00:42 41.64736 -73.60949 27897 ft 384 kts 277°
2026-05-04 00:42 41.65040 -73.64485 27327 ft 380 kts 277°
2026-05-04 00:42 41.65338 -73.67981 26760 ft 377 kts 277°
2026-05-04 00:42 41.65634 -73.71444 26203 ft 373 kts 277°
2026-05-04 00:43 41.65925 -73.74880 25646 ft 370 kts 278°
2026-05-04 00:43 41.66214 -73.78287 25098 ft 368 kts 277°
2026-05-04 00:43 41.66386 -73.81683 24544 ft 367 kts 269°
2026-05-04 00:43 41.65928 -73.85039 24013 ft 369 kts 257°
2026-05-04 00:44 41.65135 -73.88301 23477 ft 368 kts 255°
2026-05-04 00:44 41.64330 -73.91527 22900 ft 364 kts 256°
2026-05-04 00:44 41.63573 -73.94733 22375 ft 359 kts 257°
2026-05-04 00:44 41.62841 -73.97909 21865 ft 356 kts 257°
2026-05-04 00:45 41.62099 -74.01048 21342 ft 353 kts 257°
2026-05-04 00:45 41.61354 -74.04149 20865 ft 349 kts 257°
2026-05-04 00:45 41.60619 -74.07226 20360 ft 347 kts 257°
2026-05-04 00:45 41.59891 -74.10295 19855 ft 345 kts 257°
2026-05-04 00:46 41.59166 -74.13342 19379 ft 344 kts 257°
2026-05-04 00:46 41.58438 -74.16383 18874 ft 343 kts 257°
2026-05-04 00:46 41.57713 -74.19412 18384 ft 342 kts 257°
2026-05-04 00:46 41.56990 -74.22429 17877 ft 341 kts 258°
2026-05-04 00:47 41.56269 -74.25437 17392 ft 338 kts 257°
2026-05-04 00:47 41.55562 -74.28377 16908 ft 336 kts 258°
2026-05-04 00:47 41.54780 -74.31315 16410 ft 339 kts 250°
2026-05-04 00:47 41.53447 -74.33945 15952 ft 348 kts 233°
2026-05-04 00:48 41.51558 -74.35978 15599 ft 354 kts 217°
2026-05-04 00:48 41.49265 -74.37250 15151 ft 363 kts 200°
2026-05-04 00:48 41.46761 -74.37797 14708 ft 366 kts 191°
2026-05-04 00:48 41.44230 -74.38136 14249 ft 364 kts 192°
2026-05-04 00:49 41.41743 -74.38661 13796 ft 358 kts 199°
2026-05-04 00:49 41.39385 -74.39621 13277 ft 353 kts 206°
2026-05-04 00:49 41.37132 -74.40767 12632 ft 339 kts 208°
2026-05-04 00:49 41.34953 -74.41840 12020 ft 330 kts 205°
2026-05-04 00:50 41.32783 -74.42739 11353 ft 323 kts 203°
2026-05-04 00:50 41.30638 -74.43589 10601 ft 320 kts 201°
2026-05-04 00:50 41.28412 -74.43905 9914 ft 327 kts 181°
2026-05-04 00:50 41.26213 -74.43256 9483 ft 322 kts 161°
2026-05-04 00:51 41.24326 -74.41752 9161 ft 314 kts 141°
2026-05-04 00:51 41.22792 -74.39761 8862 ft 302 kts 135°
2026-05-04 00:51 41.21316 -74.37839 8583 ft 294 kts 142°
2026-05-04 00:51 41.19642 -74.36272 8330 ft 296 kts 153°
2026-05-04 00:52 41.17844 -74.34927 8047 ft 298 kts 154°
2026-05-04 00:52 41.16068 -74.33531 7773 ft 297 kts 151°
2026-05-04 00:52 41.14336 -74.32034 7490 ft 297 kts 150°
2026-05-04 00:52 41.12607 -74.30543 7204 ft 296 kts 151°
2026-05-04 00:53 41.10871 -74.29088 6911 ft 293 kts 151°
2026-05-04 00:53 41.09146 -74.27658 6653 ft 292 kts 151°
2026-05-04 00:53 41.07425 -74.26222 6371 ft 293 kts 151°
2026-05-04 00:53 41.05707 -74.24775 6081 ft 294 kts 150°
2026-05-04 00:54 41.03983 -74.23328 5797 ft 293 kts 151°
2026-05-04 00:54 41.02272 -74.21898 5657 ft 287 kts 151°
2026-05-04 00:54 41.00592 -74.20491 5335 ft 281 kts 151°
2026-05-04 00:54 40.98917 -74.19096 4738 ft 288 kts 151°
2026-05-04 00:55 40.97211 -74.17675 4223 ft 290 kts 151°
2026-05-04 00:55 40.95513 -74.16255 3707 ft 289 kts 151°
2026-05-04 00:55 40.93811 -74.14863 3473 ft 282 kts 155°
2026-05-04 00:55 40.92136 -74.13657 3318 ft 276 kts 154°
2026-05-04 00:56 40.90483 -74.12381 3090 ft 275 kts 153°
2026-05-04 00:56 40.88828 -74.11120 2996 ft 266 kts 154°
2026-05-04 00:56 40.87270 -74.09960 2984 ft 254 kts 154°
2026-05-04 00:56 40.85744 -74.08827 2983 ft 244 kts 154°
2026-05-04 00:57 40.84308 -74.07869 2986 ft 222 kts 169°
2026-05-04 00:57 40.82884 -74.07818 2832 ft 189 kts 205°
2026-05-04 00:57 40.81741 -74.08479 2604 ft 173 kts 213°
2026-05-04 00:57 40.80679 -74.09173 2377 ft 169 kts 213°
2026-05-04 00:58 40.79630 -74.09848 2153 ft 167 kts 212°
2026-05-04 00:58 40.78602 -74.10504 1938 ft 167 kts 212°
2026-05-04 00:58 40.77560 -74.11169 1736 ft 165 kts 212°
2026-05-04 00:58 40.76539 -74.11818 1496 ft 160 kts 211°
2026-05-04 00:59 40.75559 -74.12453 1285 ft 156 kts 212°
2026-05-04 00:59 40.74587 -74.13076 1081 ft 152 kts 210°
2026-05-04 00:59 40.73670 -74.13657 883 ft 142 kts 211°
2026-05-04 00:59 40.72778 -74.14229 692 ft 142 kts 208°
2026-05-04 01:00 40.71901 -74.14788 499 ft 138 kts 208°
2026-05-04 01:00 40.71039 -74.15359 324 ft 143 kts 208°
2026-05-04 01:00 40.70164 -74.15902 112 ft 138 kts 206°
2026-05-04 01:00 40.69314 -74.16425 28 ft 125 kts 209°
2026-05-04 01:01 40.68688 -74.16845 25 ft 76 kts 207°
2026-05-04 01:01 40.68336 -74.17084 24 ft 40 kts 220°
2026-05-04 01:01 40.68196 -74.17310 24 ft 24 kts 237°
2026-05-04 01:01 40.68147 -74.17415 22 ft 9 kts 245°
2026-05-04 01:02 40.68160 -74.17486 24 ft 8 kts 294°
2026-05-04 01:02 40.68183 -74.17553 22 ft 8 kts 294°
2026-05-04 01:02 40.68208 -74.17622 24 ft 9 kts 298°
2026-05-04 01:02 40.68252 -74.17678 23 ft 9 kts 324°
2026-05-04 01:03 40.68311 -74.17721 26 ft 10 kts 352°
2026-05-04 01:03 40.68381 -74.17691 23 ft 11 kts 26°
2026-05-04 01:03 40.68458 -74.17642 27 ft 13 kts 26°
2026-05-04 01:03 40.68545 -74.17587 27 ft 15 kts 25°
2026-05-04 01:04 40.68640 -74.17526 28 ft 16 kts 26°
2026-05-04 01:04 40.68744 -74.17458 25 ft 17 kts 25°
2026-05-04 01:04 40.68857 -74.17388 24 ft 19 kts 25°
2026-05-04 01:04 40.68976 -74.17309 27 ft 20 kts 25°
2026-05-04 01:05 40.69102 -74.17231 24 ft 21 kts 26°
2026-05-04 01:05 40.69234 -74.17146 23 ft 21 kts 26°
2026-05-04 01:05 40.69373 -74.17077 24 ft 21 kts 11°
2026-05-04 01:05 40.69521 -74.17080 23 ft 21 kts 349°
2026-05-04 01:06 40.69659 -74.17140 27 ft 21 kts 334°
2026-05-04 01:06 40.69773 -74.17243 24 ft 20 kts 317°
2026-05-04 01:06 40.69863 -74.17378 26 ft 18 kts 304°
2026-05-04 01:06 40.69892 -74.17482 25 ft 1 kts 282°
2026-05-04 01:07 40.69895 -74.17496 23 ft 2 kts 283°
2026-05-04 01:07 40.69899 -74.17521 23 ft 3 kts 283°
2026-05-04 01:07 40.69900 -74.17527 23 ft 0 kts 279°
2026-05-04 01:07 40.69900 -74.17528 23 ft 0 kts 279°
2026-05-04 01:08 40.69900 -74.17536 23 ft 1 kts 272°
2026-05-04 01:08 40.69898 -74.17552 23 ft 2 kts 256°
2026-05-04 01:08 40.69889 -74.17572 25 ft 3 kts 232°
2026-05-04 01:08 40.69868 -74.17597 24 ft 5 kts 210°
2026-05-04 01:09 40.69829 -74.17586 25 ft 7 kts 151°
2026-05-04 01:09 40.69790 -74.17557 25 ft 2 kts 150°
2026-05-04 01:09 40.69786 -74.17554 23 ft 0 kts 150°